Regional Weather Roundup
Issued by NWS

Home | Current Version | Previous Version | Graphics & Text | Print | Product List | Glossary Off
Versions: 1 2 3 4 5 6 7 8 9 10 11 12 13 14 15 16 17 18 19 20 21 22 23 24 25 26 27 28 29 30 31 32 33 34 35 36 37 38 39 40 41 42 43 44 45 46 47 48 49 50

303
ASUS43 KDMX 201006
RWRIA

WEATHER ROUNDUP FOR IOWA
NATIONAL WEATHER SERVICE DES MOINES IA
500 AM CDT FRI OCT 20 2017

NOTE: "FAIR" INDICATES FEW OR NO CLOUDS BELOW 12,000 FEET WITH NO
SIGNIFICANT WEATHER AND/OR OBSTRUCTIONS TO VISIBILITY.

* - THESE STATIONS ARE NOT NWS STATIONS...THUS NOT UNDER NWS
QUALITY CONTROL.  THEY ALSO DO NOT REPORT WEATHER SUCH
AS PRECIPITATION OR FOG.

IAZ001>003-012>014-020>022-031>034-043>046-201100-
   NORTHWEST IOWA

CITY           SKY/WX    TMP DP  RH WIND       PRES   REMARKS
CARROLL *        N/A     73  70  88 SW14      29.98S
DENISON *        N/A     55  50  82 S7        29.98S
LE MARS *        N/A     57  50  77 S13       29.89S
ORANGE CITY *    N/A     55  52  88 S9        29.89F
SHELDON *        N/A     57  48  72 S10       29.88S
SIOUX CITY       N/A     48  47  96 SE8       29.90F
SPENCER          N/A     55  49  80 S9        29.92S
STORM LAKE *     N/A     54  48  82 S8        29.95S
$$

IAZ055>058-069>071-079>083-090>094-201100-
   SOUTHWEST IOWA

CITY           SKY/WX    TMP DP  RH WIND       PRES   REMARKS
ATLANTIC *       N/A     55  52  88 S7        30.00F
AUDUBON *        N/A     55  52  88 S7        30.01R
CLARINDA *       N/A     54  54 100 S8        30.05S
COUNCIL BLFS *   N/A     61  55  82 S13G20    29.98S
CRESTON *        N/A     52  50  93 S9        30.05S
HARLAN  *        N/A     55  52  88 S9        30.02S
LAMONI           N/A     53  50  89 S9        30.07R
RED OAK *        N/A     57  52  82 S8        30.01S
SHENANDOAH *     N/A     57  52  82 CALM      30.02S
$$

IAZ047>049-059>061-072>074-084-201100-
   CENTRAL IOWA

CITY           SKY/WX    TMP DP  RH WIND       PRES   REMARKS
AMES             N/A     57  53  86 S8        30.01S
ANKENY *         N/A     59  52  77 S7        30.04S
BOONE *          N/A     59  52  77 SW12      30.00S
CHARITON *       N/A     54  50  87 S7        30.06S
DES MOINES       N/A     57  52  83 S10       30.03S
KNOXVILLE *      N/A     59  50  72 S10       30.04S
MARSHALLTOWN     N/A     59  52  77 S13       30.03R
NEWTON *         N/A     55  50  82 S9        30.05R
PELLA *          N/A     57  50  78 SW6       30.07R
PERRY *          N/A     53  51  95 S7        30.01S
$$

IAZ004>006-015-016-023>025-035-036-201100-
   NORTH CENTRAL IOWA

CITY           SKY/WX    TMP DP  RH WIND       PRES   REMARKS
ALGONA *         N/A     54  52  94 S10       29.95F
CLARION *        N/A     54  54 100 S10       29.99S
ESTHERVILLE      N/A     50  49  96 S10       29.92
FORT DODGE *     N/A     56  50  80 S10       29.98S
MASON CITY       N/A     47  45  93 S7        30.00S
FOREST CITY *    N/A     55  50  82 S8        29.97S
WEBSTER CITY *   N/A     55  50  82 S8        29.98R
IOWA FALLS *     N/A     55  51  85 S8        30.02S
$$

IAZ007>011-017>019-026>030-037>042-050>054-066-201100-
   NORTHEAST IOWA

CITY           SKY/WX    TMP DP  RH WIND       PRES   REMARKS
CEDAR RAPIDS     N/A     54  49  83 S8        30.07R
CHARLES CITY *   N/A     52  52 100 S8        30.02R
CLINTON *        N/A     53  49  86 SE6       30.11R
DECORAH *        N/A     57  50  77 S9        30.01S
DUBUQUE          N/A     51  48  89 S7        30.09R
MONTICELLO *     N/A     52  48  87 SE6       30.08R
OELWEIN *        N/A     52  50  93 S10       30.05R
WATERLOO         N/A     53  49  86 S6        30.03R
$$

IAZ064-065-067-068-078-201100-
   EAST CENTRAL IOWA

CITY           SKY/WX    TMP DP  RH WIND       PRES   REMARKS
DAVENPORT        N/A     54  48  80 S6        30.12R
IOWA CITY        N/A     50  47  89 CALM      30.10R
MUSCATINE *    FOG       48  46  93 CALM      30.10R VSB 1
QUAD CITIES      N/A     54  47  77 CALM      30.10R
$$

IAZ062-063-075>077-085>089-095>099-201100-
   SOUTHEAST IOWA

CITY           SKY/WX    TMP DP  RH WIND       PRES   REMARKS
BURLINGTON       N/A     54  50  86 S5        30.11R
FAIRFIELD *      N/A     54  48  82 S7        30.09R
FORT MADISON *   N/A     57  52  82 S8        30.12R
KEOKUK *         N/A     59  50  72 SW9       30.11R
OSKALOOSA *      N/A     49  47  93 S10       30.08R
OTTUMWA          N/A     54  50  86 S8        30.07S
WASHINGTON *     N/A     52  48  87 S8        30.10R
$$

ABBREVIATIONS USED IN REMARKS
   TC - TEMPERATURES IN CELSIUS
  WCI - WIND CHILL INDEX
   HX - HEAT INDEX
  VSB - VISIBILITY
$$





USA.gov is the U.S. government's official web portal to all federal, state and local government web resources and services.